◎特異小惑星2010 RF12の接近   [From JSGA Web News No. 151]

JSGA Web News No. 151                                              2009 Sept. 8

アテン型特異小惑星2010 RF12の接近
  レモン山で 1.5-m反射望遠鏡を使用して行なわれているスカイ・サーベイで,2010年
9月5日09時42分UTにペガスス座を撮影した捜索画像上に19等級の小惑星が発見された.
この小惑星は,発見後,世界各地で追跡され,9月8.9日UT頃に地球に 0.00054 AUまで
接近し,13等級まで明るくなることが伝えられた(MPEC R41, R48 (2010)).
 なお,美星でも,発見同日にこの天体を次のようにとらえている.この小惑星の直径
は,約8-m(推定)で微小の天体である.
     K10R12F  C2010 09 05.72583 22 57 27.24 +12 18 15.4          19.2 R ER048300
     K10R12F  C2010 09 05.73075 22 57 25.65 +12 17 52.4          19.3 R ER048300
     K10R12F  C2010 09 05.73320 22 57 24.85 +12 17 41.6          19.3 R ER048300
     K10R12F  C2010 09 05.73566 22 57 24.00 +12 17 29.1          19.3 R ER048300

 小惑星は,その後も,世界の多くの天文台で追跡され,東京の佐藤英貴氏から9月7
日15時20分に行なわれた追跡観測が報告され,観測期間が 約1.9日に行なわれた82個の
観測から次の軌道を決定した.この軌道によると,この小惑星は,今夜9月8日21時45
分頃(= 9月9日06時45分JST)に地球中心に0.00053 AU,その接近直下の地表面まで
約7万3,000Kmに接近する.このとき,小惑星は,1時間当たり,15゚(1分間に16')の
高速で,西南西に移動している.

2010 RF12      。
       Mo= 229.0950                Epoch = 2010 July 23.0 TT
       ω = 283.9590                   e =   0.176284          H = 28.0
       Ω = 165.6441    (2000.0)       a =   0.997027 AU       G =  0.15
       i =   3.5460                   n゚=   0.9900201
       q =   0.821266 AU              P =   1.00 年

●その軌道図を以下に示す.

http://www.spaceguard.or.jp/ja/mpnews/2010rf12_o.jpg

小惑星は,最近,多く発見される地球軌道の近くを公転する小惑星の1つであった.軌
道図中,Ωは昇交点,逆Ωは降交点,Tは近日点(通過は2010年12月2日)で,小惑星
は,その降交点で接近した.なお,小惑星の軌道で,青で描かれているのは,黄道面よ
り南にある部分,黄色で描かれているのは,北にある部分で,この軌道面には,淡い黄
色をつけてある.

●接近図
 その接近を以下に示した.図に示された範囲は,2010年9月8日17時UTから9月9日
02時まで,10分間隔である.小惑星は,その接近中,ほとんど,南極上空を動き,最接
近も同大陸上空となる.

http://www.spaceguard.or.jp/ja/mpnews/2010rf12_e.jpg
 
●予報位置
  我が国では,夕方から最接近前まで(夜明けまで)観測できる.予報光度は13等級と
若干くらいが,画像に写せばその移動がすぐにわかるだろう.
  以下,美星スペースガードセンターでの予報位置である.接近距離が大きいため,
この位置予報を使用できるのは,同所から2,000-Km以内くらいであろう.

OBSERVATORY: 300 133.544440.823370+0.565720Bisei Spaceguard Center-BATTeRS      
           SG

2010/       time  UT      α  (2000)   δ         △        Mag.  Daily Motion    Object         Sun 
  年 月 日   h  m  s     h  m  s       。  ,  "         AU    V        ,  PA 。       h。    A。      h。 
2010  9  8  09 50 00   22 47 55.7   -06 51 05     0.00157   14.5  2734.0/190.9   + 9.3  285    - 6.32010  9  8  10 00 00   22 47 41.3   -07 09 43     0.00155   14.5  2810.1/191.3   +11.2  287    - 8.32010  9  8  10 10 00   22 47 25.9   -07 28 50     0.00153   14.5  2897.0/191.7   +13.0  289    -10.32010  9  8  10 20 00   22 47 09.4   -07 48 32     0.00151   14.4  2978.9/192.1   +14.8  291    -12.32010  9  8  10 30 00   22 46 52.0   -08 08 45     0.00149   14.4  3068.6/192.5   +16.6  292    -14.32010  9  8  10 40 00   22 46 33.4   -08 29 32     0.00147   14.4  3166.0/192.8   +18.3  294    -16.22010  9  8  10 50 00   22 46 13.6   -08 50 58     0.00145   14.4  3258.3/193.2   +20.0  297    -18.22010  9  8  11 00 00   22 45 52.7   -09 12 58     0.00143   14.4  3363.5/193.5   +21.6  299    -20.12010  9  8  11 10 00   22 45 30.5   -09 35 40     0.00140   14.4  3463.0/193.9   +23.2  301    -22.02010  9  8  11 20 00   22 45 07.1   -09 59 00     0.00138   14.3  3576.7/194.2   +24.8  303    -23.92010  9  8  11 30 00   22 44 42.4   -10 23 04     0.00136   14.3  3684.5/194.5   +26.3  306    -25.72010  9  8  11 40 00   22 44 16.4   -10 47 49     0.00134   14.3  3806.6/194.8   +27.7  308    -27.52010  9  8  11 50 00   22 43 48.9   -11 13 22     0.00132   14.3  3923.5/195.1   +29.0  311    -29.32010  9  8  12 00 00   22 43 20.0   -11 39 39     0.00130   14.3  4049.4/195.3   +30.3  313    -31.02010  9  8  12 10 00   22 42 49.6   -12 06 46     0.00128   14.3  4187.1/195.6   +31.5  316    -32.72010  9  8  12 20 00   22 42 17.7   -12 34 45     0.00126   14.2  4318.0/195.8   +32.6  319    -34.42010  9  8  12 30 00   22 41 44.2   -13 03 35     0.00124   14.2  4466.2/196.0   +33.6  322    -36.02010  9  8  12 40 00   22 41 08.9   -13 33 22     0.00122   14.2  4607.4/196.2   +34.5  325    -37.52010  9  8  12 50 00   22 40 32.1   -14 04 04     0.00120   14.2  4767.9/196.4   +35.2  328    -39.02010  9  8  13 00 00   22 39 53.3   -14 35 48     0.00118   14.2  4920.8/196.6   +35.9  331    -40.42010  9  8  13 10 00   22 39 12.8   -15 08 31     0.00116   14.2  5094.0/196.8   +36.4  334    -41.82010  9  8  13 20 00   22 38 30.3   -15 42 21     0.00114   14.1  5259.5/197.0   +36.8  337    -43.12010  9  8  13 30 00   22 37 45.9   -16 17 15     0.00112   14.1  5438.9/197.1   +37.0  341    -44.22010  9  8  13 40 00   22 36 59.4   -16 53 19     0.00110   14.1  5633.5/197.3   +37.1  344    -45.32010  9  8  13 50 00   22 36 10.7   -17 30 39     0.00108   14.1  5819.5/197.4   +37.1  347    -46.32010  9  8  14 00 00   22 35 19.8   -18 09 10     0.00106   14.1  6030.3/197.6   +36.9  351    -47.22010  9  8  14 10 00   22 34 26.4   -18 49 04     0.00104   14.1  6231.5/197.7   +36.5  354    -48.02010  9  8  14 20 00   22 33 30.7   -19 30 16     0.00103   14.0  6459.6/197.8   +36.0  357    -48.62010  9  8  14 30 00   22 32 32.3   -20 12 56     0.00101   14.0  6677.6/197.9   +35.4    0    -49.22010  9  8  14 40 00   22 31 31.3   -20 57 01     0.00099   14.0  6923.9/198.0   +34.5    3    -49.52010  9  8  14 50 00   22 30 27.3   -21 42 42     0.00097   14.0  7159.7/198.1   +33.6    7    -49.82010  9  8  15 00 00   22 29 20.4   -22 29 55     0.00095   14.0  7415.3/198.2   +32.5    9    -49.92010  9  8  15 10 00   22 28 10.4   -23 18 47     0.00094   14.0  7692.0/198.3   +31.2   12    -49.92010  9  8  15 20 00   22 26 56.9   -24 09 27     0.00092   14.0  7956.9/198.4   +29.9   15    -49.72010  9  8  15 30 00   22 25 40.0   -25 01 50     0.00090   14.0  8255.8/198.5   +28.4   18    -49.52010  9  8  15 40 00   22 24 19.2   -25 56 09     0.00089   13.9  8542.3/198.6   +26.7   20    -49.02010  9  8  15 50 00   22 22 54.4   -26 52 19     0.00087   13.9  8863.4/198.7   +25.0   22    -48.52010  9  8  16 00 00   22 21 25.3   -27 50 33     0.00085   13.9  9172.3/198.8   +23.2   25    -47.82010  9  8  16 10 00   22 19 51.7   -28 50 47     0.00084   13.9  9517.5/198.9   +21.2   27    -47.02010  9  8  16 20 00   22 18 13.0   -29 53 14     0.00082   13.9  9849.3/199.0   +19.2   29    -46.12010  9  8  16 30 00   22 16 29.1   -30 57 49     0.00081   13.9 10204.2/199.1   +17.0   30    -45.12010  9  8  16 40 00   22 14 39.5   -32 04 41     0.00079   13.9 10588.0/199.3   +14.8   32    -43.92010  9  8  16 50 00   22 12 43.5   -33 13 59     0.00078   13.9 10953.1/199.4   +12.5   34    -42.72010  9  8  17 00 00   22 10 40.8   -34 25 36     0.00076   13.9 11360.8/199.6   +10.1   35    -41.42010  9  8  17 10 00   22 08 30.5   -35 39 48     0.00075   13.9 11746.5/199.8   + 7.6   36    -40.12010  9  8  17 20 00   22 06 12.2   -36 56 25     0.00073   13.9 12177.8/200.0   + 5.1   38    -38.62010  9  8  17 30 00   22 03 44.8   -38 15 43     0.00072   13.9 12582.7/200.3   + 2.5   39    -37.12010  9  8  17 40 00   22 01 07.6   -39 37 31     0.00071   13.9 13034.0/200.6   - 0.2   40    -35.62010  9  8  17 50 00   21 58 19.2   -41 02 05     0.00070   13.9 13454.9/200.9   - 2.9   40    -34.0


軌道と残差:

2010 RF12
Epoch 2010 July 23.0 TT = JDT 2455400.5                 MPCN
M 229.09504              (2000.0)            P               Q
n   0.99002007     Peri.  283.95896     +0.00646649     -0.99986149
a   0.9970265      Node   165.64414     +0.93968474     +0.00083123
e   0.1762844      Incl.    3.54604     +0.34198066     +0.01662228
P   1.00           H   28.0           G   0.00           U   6
Residuals in seconds of arc 
100905 G96  0.0   0.1+    100905 118  0.5-  1.3-    100906 H45  0.5-  0.6-  
100905 G96  0.1-  0.0     100905 A74  0.6+  1.0+    100906 H45  0.1-  0.7-  
100905 G96  0.3-  0.1+    100905 A74  0.5-  0.1+    100906 H45  0.6-  0.3-  
100905 H01  0.1+  0.2+    100905 A74  0.8-  0.3-    100906 H45  0.1-  0.3-  
100905 H01  0.0   0.2+    100905 157  0.2+  0.0     100906 H45  0.7-  0.0   
100905 H01  0.0   0.2+    100905 157  0.1-  0.1+    100906 704  0.1-  0.2+  
100905 H01  0.1+  0.3+    100905 J95  0.1-  0.2+    100906 H45  0.3-  0.1+  
100905 H01  0.1+  0.2+    100905 J95  0.1-  0.1+    100906 H45  0.5+  0.3-  
100905 H01  0.0   0.3+    100906 B82  0.2-  0.1+    100906 H45  0.5+  0.3+  
100905 H01  0.4+  0.1+    100906 B82  0.2+  0.6+    100906 H15  0.1-  0.2-  
100905 G96  0.3+  0.1-    100906 B82  0.4+  0.3+    100906 H15  0.3-  0.3+  
100905 G96  0.1+  0.1-    100906 B82  0.3-  0.1+    100906 H15  0.1+  0.0   
100905 G96  0.1-  0.3-    100906 B82  0.5-  0.3+    100906 H15  0.3-  0.0   
100905 G96  0.1-  0.1-    100906 B82  0.3+  0.2+    100906 E12  0.1-  0.1+  
100905 H01  0.3+  0.1+    100906 B82  0.2+  0.5-    100906 E12  0.2-  0.0   
100905 G96  0.4-  0.1-    100906 B82  0.3+  0.8-    100906 J95  0.1-  0.1+  
100905 G96  0.0   0.1-    100906 B82  0.2-  0.5-    100906 J95  0.1+  0.0   
100905 G96  0.3-  0.2-    100906 H01  0.0   0.2+    100906 J95  0.1+  0.0   
100905 G96  0.0   0.1-    100906 H01  0.1-  0.1+    100906 470 (0.1+  2.8+) 
100905 E12  0.1+  0.3+    100906 H01  0.1-  0.3+    100906 470 (1.6-  2.6+) 
100905 E12  0.4+  0.1+    100906 H11  1.0+  0.6+    100906 470 (0.0   2.4+) 
100905 300  0.5+  0.1+    100906 H11  0.4+  0.2-    100907 850  0.1+  0.3+  
100905 300  0.9+  0.3+    100906 H11  0.4+  0.7+    100907 850  0.6+  0.2+  
100905 300  0.9+  1.1+    100906 704  0.1-  0.5+    100907 850  0.0   0.1-  
100905 300  0.1+  0.3+    100906 704  0.7-  0.3+    100907 850  0.1+  0.2-  
100905 118  0.6-  1.0-    100906 704  0.0   0.9+    100907 H06  0.4-  0.4-  
100905 118  0.5-  1.0-    100906 704  0.6+  0.0     100907 H06  0.3-  0.1+  
100905 118  1.0-  1.5-    100906 H45  1.3-  1.5-                            
100905 118  1.4-  0.8-    100906 H45  1.0-  0.5-                            
RunOff = 1868".3
 
日本スペースガード協会            (c) Copyright JSGA 2010           中野 主一
         **** Don't distribute anyone except personal use only ****
           (C) Copyright 2010 Orbit.Astro.Assoc./ComputingSection
write mail from CFAD0::NAKANO on 2010-09-08 08:33:1

戻ります。